Regional Weather Roundup
Issued by NWS

Home | Current Version | Previous Version | Graphics & Text | Print | Product List | Glossary On
Versions: 1 2 3 4 5 6 7 8 9 10 11 12 13 14 15 16 17 18 19 20 21 22 23 24 25 26 27 28 29 30 31 32 33 34 35 36 37 38 39 40 41 42 43 44 45 46 47 48 49 50
000
ASUS43 KDMX 070501
RWRIA

WEATHER ROUNDUP FOR IOWA
NATIONAL WEATHER SERVICE DES MOINES IA
1100 PM CST TUE DEC 06 2016

NOTE: "FAIR" INDICATES FEW OR NO CLOUDS BELOW 12,000 FEET WITH NO
SIGNIFICANT WEATHER AND/OR OBSTRUCTIONS TO VISIBILITY.

* - THESE STATIONS ARE NOT NWS STATIONS...THUS NOT UNDER NWS
QUALITY CONTROL.  THEY ALSO DO NOT REPORT WEATHER SUCH
AS PRECIPITATION OR FOG.

IAZ001>003-012>014-020>022-031>034-043>046-070600-
   NORTHWEST IOWA

CITY           SKY/WX    TMP DP  RH WIND       PRES   REMARKS
CARROLL *      CLEAR     19  12  73 W17       30.07R WCI   4
DENISON *      CLEAR     19  10  68 W10G20    30.08R WCI   8
LE MARS *      CLOUDY    16   9  73 W13G21    30.11R WCI   2
ORANGE CITY *  PTCLDY    14  10  85 W23       30.04R WCI  -5
SHELDON *      MOCLDY    14   9  79 W23       30.00S WCI  -5
SIOUX CITY     CLEAR     18   9  68 NW17G25   30.13R WCI   3
SPENCER        CLEAR     14   8  77 W29G37    30.00R WCI  -7
STORM LAKE *   MOCLDY    16   9  73 W24G31    30.04R WCI  -3
$$

IAZ055>058-069>071-079>083-090>094-070600-
   SOUTHWEST IOWA

CITY           SKY/WX    TMP DP  RH WIND       PRES   REMARKS
ATLANTIC *     CLEAR     23  12  63 W12       30.11R WCI  12
AUDUBON *      CLEAR     21  12  68 W10G17    30.08R WCI  10
CLARINDA *     PTCLDY    23  14  68 W7        30.16R WCI  15
COUNCIL BLFS * PTCLDY    23  10  58 NW9       30.13R WCI  13
CRESTON *      CLEAR     21  12  68 W9        30.11R WCI  11
HARLAN  *      PTCLDY    21  12  68 W9        30.14R WCI  11
LAMONI         CLOUDY    24  15  68 W9        30.11R WCI  14
RED OAK *      MOCLDY    23  12  63 W8        30.14R WCI  14
SHENANDOAH *   PTCLDY    23  14  68 W6        30.16R WCI  16
$$

IAZ047>049-059>061-072>074-084-070600-
   CENTRAL IOWA

CITY           SKY/WX    TMP DP  RH WIND       PRES   REMARKS
AMES           CLEAR     22  13  68 W20G29    30.05R WCI   7
ANKENY *       CLEAR     23  14  68 W15       30.08R WCI  10
BOONE *        CLEAR     19  10  68 W16G28    30.03R WCI   5
CHARITON *       N/A     25  14  63 W12       30.09R WCI  14
DES MOINES     PTCLDY    25  12  58 W14G25    30.08R WCI  13
GRINNELL*      CLEAR     24  15  69 W15       30.04R WCI  11
KNOXVILLE *    CLEAR     25  14  63 W13       30.07R WCI  13
MARSHALLTOWN   CLEAR     21  14  74 W15G22    30.02R WCI   8
NEWTON *       CLEAR     23  14  68 W14G22    30.05R WCI  11
PELLA *        CLEAR     26  15  62 W15G23    30.08R WCI  14
PERRY *          N/A     22  17  79 W15       30.07R WCI   9
$$

IAZ004>006-015-016-023>025-035-036-070600-
   NORTH CENTRAL IOWA

CITY           SKY/WX    TMP DP  RH WIND       PRES   REMARKS
ALGONA *       MOCLDY    18  12  79 W15G26    29.98S WCI   3
CLARION *      CLEAR     18  12  79 W17G25    30.00R WCI   2
ESTHERVILLE    MOCLDY    13   7  77 W21G28    29.98S WCI  -5
FORT DODGE *   CLEAR     18   9  68 W13G18    30.03R WCI   4
MASON CITY     CLEAR     17  10  74 W23       29.97R WCI  -1
WEBSTER CITY * CLEAR     19  12  73 W17       30.01R WCI   4
IOWA FALLS *     N/A     20  14  78 W20       30.00R WCI   5
$$

IAZ007>011-017>019-026>030-037>042-050>054-066-070600-
   NORTHEAST IOWA

CITY           SKY/WX    TMP DP  RH WIND       PRES   REMARKS
CEDAR RAPIDS   CLEAR     23  17  78 W10       30.01R WCI  12
CHARLES CITY * PTCLDY    19  12  73 W22       29.95R WCI   3
CLINTON *      CLEAR     25  20  81 W15       30.02R WCI  13
DECORAH *      CLOUDY    21  14  73 W14G26    29.91R WCI   8
DUBUQUE        FLURRIES  22  14  71 W18       29.96R WCI   7
MONTICELLO *   CLEAR     23  16  74 W13       29.98R WCI  11
OELWEIN *      CLEAR     21  14  73 W22       29.96R WCI   5
WATERLOO       CLEAR     21  12  68 W14G28    29.97R WCI   8
$$

IAZ064-065-067-068-078-070600-
   EAST CENTRAL IOWA

CITY           SKY/WX    TMP DP  RH WIND       PRES   REMARKS
DAVENPORT      CLEAR     26  19  74 SW14      30.03R WCI  14
IOWA CITY      CLEAR     26  17  68 SW10      30.06R WCI  16
MUSCATINE *    CLEAR     27  19  74 W10G16    30.07R WCI  17
QUAD CITIES    CLEAR     27  18  69 W10       30.04R WCI  17
$$

IAZ062-063-075>077-085>089-095>099-070600-
   SOUTHEAST IOWA

CITY           SKY/WX    TMP DP  RH WIND       PRES   REMARKS
BURLINGTON     PTCLDY    29  18  63 W10       30.09R WCI  20
FAIRFIELD *    PTCLDY    27  14  59 W12       30.08R WCI  16
FORT MADISON * CLEAR     28  18  64 W8        30.10R WCI  20
KEOKUK *       PTCLDY    30  18  59 W10       30.10R WCI  21
OSKALOOSA *      N/A     26  17  70 W15       30.08R WCI  13
CENTERVILLE *    N/A     27  16  63 W10       30.11R WCI  17
OTTUMWA        CLEAR     27  14  58 W13       30.07R WCI  16
WASHINGTON *   CLEAR     25  19  80 W10       30.07R WCI  15
$$

ABBREVIATIONS USED IN REMARKS
   TC - TEMPERATURES IN CELSIUS
  WCI - WIND CHILL INDEX
   HX - HEAT INDEX
  VSB - VISIBILITY
$$




USA.gov is the U.S. government's official web portal to all federal, state and local government web resources and services.